Regional Weather Roundup
Issued by NWS

Home | Current Version | Previous Version | Graphics & Text | Print | Product List | Glossary On
Versions: 1 2 3 4 5 6 7 8 9 10 11 12 13 14 15 16 17 18 19 20 21 22 23 24 25 26 27 28 29 30 31 32 33 34 35 36 37 38 39 40 41 42 43 44 45 46 47 48 49 50
000
ASUS43 KMKX 301600
RWRWI

WISCONSIN REGIONAL WEATHER ROUNDUP
NATIONAL WEATHER SERVICE MILWAUKEE/SULLIVAN WI
1100 AM CDT THU JUL 30 2015

NOTE: "FAIR" INDICATES FEW OR NO CLOUDS BELOW 12,000 FEET WITH NO
SIGNIFICANT WEATHER AND/OR OBSTRUCTIONS TO VISIBILITY.

WIZ001-002-006>008-014>016-023>028-301700-
NORTHWEST WISCONSIN

CITY           SKY/WX    TMP DP  RH WIND       PRES   REMARKS
SUPERIOR ARPT  SUNNY     76  60  57 W10       29.95S
ASHLAND        SUNNY     77  58  51 W9G23     29.94F
HAYWARD        SUNNY     77  55  46 VRB7      29.99S
SIREN          SUNNY     76  58  54 NW10      30.01R
CUMBERLAND     SUNNY     73  57  56 W13       30.01S
RICE LAKE      SUNNY     74  59  59 W12       30.02S
CHETEK         SUNNY     76  61  60 W5G16     30.01S
LADYSMITH      SUNNY     76  60  57 W12G17    30.02S
EAU CLAIRE     NOT AVBL
MENOMONIE      SUNNY     78  58  50 SW8       30.02S
NEW RICHMOND   SUNNY     77  58  51 W8        30.03S
OSCEOLA        SUNNY     75  60  58 W12       30.05S
$$

WIZ003>005-009-010-017-018-301700-
NORTH CENTRAL WISCONSIN

CITY           SKY/WX    TMP DP  RH WIND       PRES   REMARKS
MANITOWISH WTR SUNNY     73  55  52 W16G24    29.96R
ARBOR VITAE    SUNNY     75  57  53 NW16      29.96S
WOODRUFF       SUNNY     75  57  53 NW16      29.96S
RHINELANDER    MOSUNNY   77  54  44 W16G24    29.97S
EAGLE RIVER    MOSUNNY   74  50  42 W14G24    29.94S
LAND O LAKES   MOSUNNY   75  52  44 W14G20    29.94S
PHILLIPS       SUNNY     73  57  56 W13       29.98S
TOMAHAWK       SUNNY     74  55  51 W13G22    29.98S
MEDFORD        SUNNY     73  59  62 W13       30.01S
MERRILL        NOT AVBL
$$

WIZ029-030-035-036-043>047-301700-
CENTRAL WISCONSIN

CITY           SKY/WX    TMP DP  RH WIND       PRES   REMARKS
WAUSAU         SUNNY     79  57  46 W14G21    29.98S HX  80
MOSINEE        SUNNY     77  57  50 W17G29    30.00F
MARSHFIELD     SUNNY     78  58  49 W12       30.02S
STEVENS POINT  SUNNY     74  57  55 W12G18    30.01S
WAUPACA        SUNNY     80  57  45 W13       29.99S HX  80
WAUTOMA        NOT AVBL
WISC RAPIDS    SUNNY     79  56  45 W12       30.03R HX  80
CAMP DOUGLAS   NOT AVBL
$$

WIZ011>013-019>022-031-037>040-048>050-301700-
NORTHEAST WISCONSIN

CITY           SKY/WX    TMP DP  RH WIND       PRES   REMARKS
ANTIGO         SUNNY     75  57  54 W16G22    29.98S
SHAWANO        SUNNY     79  56  44 W9G16     29.95F HX  80
OCONTO         SUNNY     80  56  44 W14G22    29.92S HX  80
STURGEON BAY   SUNNY     77  55  47 W14G23    29.94S
GREEN BAY      SUNNY     79  60  52 W17G25    29.96S HX  80
MANITOWOC      NOT AVBL
APPLETON       SUNNY     77  55  47 W14G20    29.99S
CLINTONVILLE   SUNNY     77  55  47 W10G17    29.97S
OSHKOSH        SUNNY     79  59  50 W10       29.99S HX  80
$$

WIZ032>034-041-042-053>061-301700-
SOUTHWEST WISCONSIN

CITY           SKY/WX    TMP DP  RH WIND       PRES   REMARKS
LA CROSSE      SUNNY     82  57  42 W10       30.04S HX  82
SPARTA         SUNNY     79  52  39 W10G20    30.05S
VIROQUA        SUNNY     77  58  52 W9        30.08S
BOSCOBEL       SUNNY     84  59  42 W13G21    30.07S HX  84
PRAIRIE DU CHI SUNNY     81  54  39 W9        30.07S HX  81
PLATTEVILLE    SUNNY     77  62  59 W8        30.10S
$$

WIZ056-057-062-063-064-067-068-301700-
SOUTH CENTRAL WISCONSIN

CITY           SKY/WX    TMP DP  RH WIND       PRES   REMARKS
REEDSBURG      SUNNY     80  57  45 W15       30.05R HX  81
BARABOO/DELLS  SUNNY     81  51  35 W9G21     30.05R HX  80
LONE ROCK      NOT AVBL
MINERAL POINT  SUNNY     81  57  44 W10G16    30.09S HX  81
MADISON        SUNNY     80  58  46 W9G18     30.05R HX  80
MIDDLETON      SUNNY     81  55  40 W14G20    30.06S HX  81
WATERTOWN      SUNNY     78  60  54 W9        30.04R
MONROE         SUNNY     79  57  47 W12       30.09R HX  80
JANESVILLE     SUNNY     82  55  39 W14       30.06S HX  82
$$

WIZ051-052-058>065-066-070>072-301700-
SOUTHEAST WISCONSIN

CITY           SKY/WX    TMP DP  RH WIND       PRES   REMARKS
MILWAUKEE      SUNNY     83  53  35 NW15G24   30.02S HX  82
WAUKESHA       SUNNY     79  55  44 W14G21    30.05R
MILWAUKEE/TIMM SUNNY     81  54  39 W15G22    30.03S HX  80
RACINE         SUNNY     82  55  39 W13       30.05R HX  81
BURLINGTON     SUNNY     79  54  41 W14       30.05S HX  80
KENOSHA        SUNNY     81  61  50 W9        30.05R HX  82
FOND DU LAC    SUNNY     81  59  47 W14       30.01R HX  81
SHEBOYGAN      SUNNY     81  59  47 NW15G22   29.99R HX  81
WEST BEND      SUNNY     79  54  41 W13G22    30.02R
JUNEAU         SUNNY     76  60  57 W12       30.04S
$$

LSZ147-162-301700-
LAKE SUPERIOR

STATION/POSITION TIME  TEMP    WIND        PRES    WAVE
                       AIR SEA DIR/SP/G            HT/PER
                 (UTC) (F)     (DEG/KT/KT) (MB)    (FT/S)
W MID LAKE BUOY  1450   57 53  260/ 14/ 16 1011.4R   3/ 5
DEVILS ISLAND    1500   62     250/ 17/ 20 1013.1R
PORT WING        1500   70     250/ 13/ 15 1014.2R
SAXON HARBOR     1500   74                 1013.2
$$

LMZ867-665-643>646-301700-
LAKE MICHIGAN

STATION/POSITION TIME  TEMP    WIND        PRES    WAVE
                       AIR SEA DIR/SP/G            HT/PER
                 (UTC) (F)     (DEG/KT/KT) (MB)    (FT/S)
CHAMBERS ISLAND  1500   75     240/  5/ 13 1012.2S
S GREEN BAY BUOY 1530   68 66  240/ 10/ 14 1014.8F
N MID LAKE BUOY  1450   70 69  250/ 17/ 19 1010.6R   4/ 4
NORTHPORT PIER   1500   74     280/  8/ 16 1011.5S
SISTER BAY       1414   75     300/ 19/ 22   N/A
ALGOMA LAKESHORE 1512          260/ 10/ 18   N/A
KEWAUNEE LAKESHO 1500   77     300/ 10/ 15 1013.2
SHEBOYGAN LAKESH 1500   76     270/  9/ 12 1015.2R
PORT WASHINGTON  1500   80     290/ 12/ 17 1016.3S
ATWATER BUOY     1500   71 58  280/ 12/ 14 1017.6R
MILWAUKEE LAKESH 1500   78     300/ 11/ 15   N/A
KENOSHA   LAKESH 1500   77     270/ 12/ 17 1016.6F
$$

TC  - TEMPERATURE IN CELSIUS
VSB - VISIBILITY IN STATUTE MILES
WCI - WIND CHILL INDEX
HX  - HEAT INDEX




USA.gov is the U.S. government's official web portal to all federal, state and local government web resources and services.